GORIZONT 17 1 19765U 89004A 21018.14626402 -.00000204 00000-0 00000-0 0 9993 2 19765 14.4113 348.0790 0020450 109.0831 248.6689 0.99069041115994 SL-12 R/B(2) 1 19776U 89004F 21018.34673251 -.00000074 00000-0 00000-0 0 9996 2 19776 14.8737 349.1776 0025531 75.0746 279.3269 0.97992335 99029